Weather History for Salida, CO

Change the Weather History Date:

Thursday, October 3, 2013

  Actual Average (KGUC) Record (KGUC)
Temperature  
Mean Temperature 58 °F -  
Max Temperature 71 °F 61 °F 73 °F (2010)
Min Temperature 46 °F 28 °F 24 °F (2007)
Degree Days  
Heating Degree Days 6    
Growing Degree Days 8 (Base 50)    
Moisture  
Dew Point 22 °F    
Average Humidity 24    
Maximum Humidity 37    
Minimum Humidity 13    
Precipitation  
Precipitation 0.00 in - - ()
Sea Level Pressure  
Sea Level Pressure 29.98 in    
Wind  
Wind Speed 7 mph (SSW)    
Max Wind Speed 21 mph    
Max Gust Speed 34 mph    
Visibility 10 miles    
Events      
Averages and records for this station are not official NWS values.
T = Trace of Precipitation, MM = Missing Value Source: NWS Daily Summary

Daily Weather History Graph

Daily Weather History Graph

Search for Another Location

Airport:

Trip Planner

Search our weather history database for the weather conditions in past years. The results will help you decide how hot, cold, wet, or windy it might be!

Date:

Astronomy

Oct. 03, 2013 Rise Set
Actual Time 7:02 AM MDT 6:43 PM MDT
Civil Twilight 6:35 AM MDT 7:09 PM MDT
Nautical Twilight 6:04 AM MDT 7:40 PM MDT
Astronomical Twilight 5:34 AM MDT 8:11 PM MDT
Moon 5:38 AM MDT (10/3) 5:53 PM MDT (10/3)
Length of Visible Light 12h 34m
Length of Day
11h 41m
Waning Crescent, 2% of the Moon is Illuminated
Oct 3
Waning Crescent
Oct 4
New
Oct 11
First Quarter
Oct 18
Full
Oct 26
Last Quarter

Hourly Weather History & Observations

Time (MDT) Temp. Dew Point Humidity Pressure Visibility Wind Dir Wind Speed Gust Speed Precip Events Conditions
12:15 AM 55.0 °F 22.8 °F 29% 30.11 in 10.0 mi West 4.6 mph - N/A   Clear
12:35 AM 54.5 °F 22.5 °F 29% 30.10 in 10.0 mi Calm Calm - N/A   Clear
12:55 AM 54.0 °F 22.5 °F 29% 30.10 in 10.0 mi Calm Calm - N/A   Clear
1:15 AM 53.8 °F 22.1 °F 29% 30.10 in 10.0 mi WNW 5.8 mph - N/A   Clear
1:35 AM 51.3 °F 22.6 °F 33% 30.10 in 10.0 mi WSW 6.9 mph - N/A   Clear
1:55 AM 52.2 °F 22.3 °F 31% 30.09 in 10.0 mi Calm Calm - N/A   Clear
2:15 AM 51.4 °F 22.3 °F 32% 30.09 in 10.0 mi Calm Calm - N/A   Clear
2:35 AM 49.1 °F 23.4 °F 36% 30.09 in 10.0 mi North 3.5 mph - N/A   Clear
2:55 AM 48.4 °F 23.2 °F 37% 30.09 in 10.0 mi North 4.6 mph - N/A   Clear
3:15 AM 49.6 °F 21.6 °F 33% 30.08 in 10.0 mi Calm Calm - N/A   Clear
3:35 AM 49.8 °F 21.7 °F 33% 30.07 in 10.0 mi Calm Calm - N/A   Clear
3:55 AM 47.8 °F 22.1 °F 36% 30.07 in 10.0 mi North 5.8 mph - N/A   Clear
4:15 AM 48.0 °F 21.4 °F 35% 30.07 in 10.0 mi Calm Calm - N/A   Clear
4:35 AM 48.6 °F 21.0 °F 34% 30.07 in 10.0 mi North 6.9 mph - N/A   Clear
4:55 AM 50.0 °F 20.3 °F 31% 30.07 in 10.0 mi Calm Calm - N/A   Clear
5:15 AM 48.2 °F 20.8 °F 34% 30.07 in 10.0 mi WNW 5.8 mph - N/A   Clear
5:35 AM 46.6 °F 20.8 °F 36% 30.06 in 10.0 mi WNW 6.9 mph - N/A   Clear
5:55 AM 48.0 °F 20.3 °F 33% 30.07 in 10.0 mi WNW 9.2 mph - N/A   Clear
6:15 AM 49.5 °F 19.9 °F 31% 30.07 in 10.0 mi WNW 8.1 mph - N/A   Clear
6:35 AM 49.3 °F 19.8 °F 31% 30.07 in 10.0 mi West 6.9 mph - N/A   Clear
6:55 AM 48.6 °F 20.7 °F 33% 30.06 in 10.0 mi NNW 6.9 mph - N/A   Clear
7:15 AM 47.7 °F 20.7 °F 34% 30.06 in 10.0 mi NW 5.8 mph - N/A   Clear
7:35 AM 48.0 °F 21.6 °F 35% 30.06 in 10.0 mi NNW 5.8 mph - N/A   Clear
7:55 AM 50.4 °F 21.4 °F 32% 30.06 in 10.0 mi Calm Calm - N/A   Clear
8:15 AM 50.0 °F 23.4 °F 35% 30.06 in 10.0 mi NW 3.5 mph - N/A   Clear
8:35 AM 54.7 °F 22.3 °F 28% 30.06 in 10.0 mi South 10.4 mph 16.1 mph N/A   Clear
8:55 AM 59.9 °F 22.3 °F 24% 30.05 in 10.0 mi SSW 9.2 mph 17.3 mph N/A   Clear
9:15 AM 60.8 °F 21.7 °F 22% 30.04 in 10.0 mi South 15.0 mph 21.9 mph N/A   Clear
9:35 AM 61.9 °F 22.5 °F 22% 30.03 in 10.0 mi SSW 10.4 mph 21.9 mph N/A   Clear
9:55 AM 63.0 °F 22.6 °F 21% 30.02 in 10.0 mi SSW 18.4 mph 23.0 mph N/A   Clear
10:15 AM 63.7 °F 23.2 °F 21% 30.02 in 10.0 mi SW 15.0 mph 21.9 mph N/A   Clear
10:35 AM 64.4 °F 22.3 °F 20% 30.01 in 10.0 mi SSW 12.7 mph 23.0 mph N/A   Clear
10:55 AM 66.2 °F 22.5 °F 19% 30.00 in 10.0 mi SSW 15.0 mph 20.7 mph N/A   Clear
11:15 AM 66.9 °F 21.6 °F 18% 29.99 in 10.0 mi South 13.8 mph 24.2 mph N/A   Clear
11:35 AM 67.5 °F 21.0 °F 17% 29.98 in 10.0 mi South 16.1 mph 25.3 mph N/A   Clear
11:55 AM 67.3 °F 21.2 °F 17% 29.98 in 10.0 mi South 15.0 mph 27.6 mph N/A   Clear
12:15 PM 68.2 °F 21.2 °F 17% 29.97 in 10.0 mi South 17.3 mph 24.2 mph N/A   Clear
12:35 PM 67.8 °F 21.7 °F 17% 29.95 in 10.0 mi South 20.7 mph 28.8 mph N/A   Clear
12:55 PM 68.2 °F 22.3 °F 18% 29.94 in 10.0 mi South 20.7 mph 31.1 mph N/A   Clear
1:15 PM 68.2 °F 22.1 °F 17% 29.93 in 10.0 mi South 18.4 mph 27.6 mph N/A   Clear
1:35 PM 68.5 °F 22.3 °F 17% 29.92 in 10.0 mi South 17.3 mph 27.6 mph N/A   Clear
1:55 PM 69.3 °F 22.8 °F 17% 29.91 in 10.0 mi South 20.7 mph 26.5 mph N/A   Clear
2:15 PM 69.4 °F 21.4 °F 16% 29.90 in 10.0 mi SSE 12.7 mph 31.1 mph N/A   Clear
2:35 PM 69.6 °F 21.6 °F 16% 29.89 in 10.0 mi SSE 13.8 mph 34.5 mph N/A   Clear
2:55 PM 70.3 °F 22.1 °F 16% 29.88 in 10.0 mi South 13.8 mph 32.2 mph N/A   Clear
3:15 PM 71.1 °F 21.9 °F 16% 29.87 in 10.0 mi SSE 11.5 mph 24.2 mph N/A   Scattered Clouds
3:35 PM 71.6 °F 21.0 °F 15% 29.86 in 10.0 mi SSE 18.4 mph 25.3 mph N/A   Scattered Clouds
3:55 PM 70.7 °F 21.0 °F 15% 29.86 in 10.0 mi South 11.5 mph 24.2 mph N/A   Mostly Cloudy
4:15 PM 69.8 °F 19.8 °F 15% 29.86 in 10.0 mi South 10.4 mph 19.6 mph N/A   Scattered Clouds
4:35 PM 69.3 °F 16.7 °F 13% 29.85 in 10.0 mi SSW 12.7 mph 19.6 mph N/A   Clear
4:55 PM 69.4 °F 16.2 °F 13% 29.85 in 10.0 mi South 12.7 mph 21.9 mph N/A   Scattered Clouds
5:15 PM 68.5 °F 19.8 °F 16% 29.86 in 10.0 mi SW 12.7 mph 17.3 mph N/A   Scattered Clouds
5:35 PM 67.3 °F 17.8 °F 15% 29.87 in 10.0 mi SSW 15.0 mph 25.3 mph N/A   Scattered Clouds
5:55 PM 66.4 °F 18.3 °F 16% 29.87 in 10.0 mi South 17.3 mph 21.9 mph N/A   Scattered Clouds
6:15 PM 65.7 °F 18.5 °F 16% 29.88 in 10.0 mi SSW 16.1 mph 24.2 mph N/A   Scattered Clouds
6:35 PM 64.4 °F 19.2 °F 18% 29.90 in 10.0 mi SSW 18.4 mph 25.3 mph N/A   Scattered Clouds
6:55 PM 63.5 °F 19.6 °F 19% 29.90 in 10.0 mi SSW 11.5 mph 19.6 mph N/A   Scattered Clouds
7:15 PM 62.2 °F 20.7 °F 20% 29.91 in 10.0 mi SSW 9.2 mph 20.7 mph N/A   Clear
7:35 PM 61.7 °F 21.4 °F 21% 29.92 in 10.0 mi SSW 11.5 mph 20.7 mph N/A   Clear
7:55 PM 60.8 °F 21.6 °F 22% 29.92 in 10.0 mi SSW 12.7 mph 17.3 mph N/A   Scattered Clouds
8:15 PM 59.4 °F 21.6 °F 23% 29.92 in 10.0 mi Calm Calm - N/A   Scattered Clouds
8:35 PM 58.8 °F 21.6 °F 24% 29.92 in 10.0 mi SSE 4.6 mph - N/A   Mostly Cloudy
8:55 PM 58.3 °F 22.1 °F 25% 29.92 in 10.0 mi South 6.9 mph - N/A   Mostly Cloudy
9:15 PM 58.5 °F 22.3 °F 25% 29.91 in 10.0 mi South 8.1 mph - N/A   Clear
9:35 PM 59.0 °F 22.1 °F 24% 29.91 in 10.0 mi South 4.6 mph 16.1 mph N/A   Scattered Clouds
10:35 PM 55.0 °F 23.9 °F 30% 29.88 in 10.0 mi Calm Calm - N/A   Clear
10:55 PM 56.8 °F 24.8 °F 29% 29.87 in 10.0 mi SE 6.9 mph - N/A   Clear
11:15 PM 58.1 °F 25.2 °F 28% 29.87 in 10.0 mi South 8.1 mph - N/A   Scattered Clouds
11:35 PM 57.9 °F 24.3 °F 27% 29.86 in 10.0 mi South 9.2 mph 16.1 mph N/A   Scattered Clouds
11:55 PM 57.6 °F 23.9 °F 27% 29.86 in 10.0 mi South 9.2 mph 21.9 mph N/A   Scattered Clouds